Regional Weather Roundup
Issued by NWS

Home | Current Version | Previous Version | Graphics & Text | Print | Product List | Glossary On
Versions: 1 2 3 4 5 6 7 8 9 10 11 12 13 14 15 16 17 18 19 20 21 22 23 24 25 26 27 28 29 30 31 32 33 34 35 36 37 38 39
000
ASUS45 KCYS 210110
RWRWY

WYOMING REGIONAL WEATHER ROUNDUP
NATIONAL WEATHER SERVICE CHEYENNE WY
700 PM MDT MON OCT 20 2014

NOTE:  "FAIR" INDICATES FEW OR NO CLOUDS BELOW 12,000 FEET
WITH NO SIGNIFICANT WEATHER AND/OR OBSTRUCTIONS TO VISIBILITY.

WYZ001-210200-
YELLOWSTONE NATIONAL PARK

CITY           SKY/WX    TMP DP  RH WIND       PRES   REMARKS
LK YELLOWSTONE   N/A     50  33  52 CALM      30.13F
W YELLOWSTONE  NOT AVBL

$$
WYZ002>013-054>058-071-098>099-210200-
NORTHERN WYOMING

CITY           SKY/WX    TMP DP  RH WIND       PRES   REMARKS
JACKSON        CLEAR     57  30  35 CALM      30.03F
CODY           PTCLDY   N/A N/A N/A CALM      29.93S
GREYBULL       CLEAR     68  29  23 CALM      29.86F
WORLAND        CLEAR     54  30  40 SE5       29.87F
SHERIDAN       CLEAR     58  33  39 CALM      29.88R
BUFFALO        CLEAR     56  24  29 W7        29.94S
GILLETTE         N/A     63  30  28 MISG      29.90S
HULETT         FAIR      66  34  30 S8        29.93
NEWCASTLE      FAIR      64  34  32 E12       29.95

$$
WYZ014>020-022>026-101>103-210200-
CENTRAL WYOMING

CITY           SKY/WX    TMP DP  RH WIND       PRES   REMARKS
BIG PINEY      PTCLDY    53  30  41 W5        30.09S
PINEDALE       MOCLDY    55  30  38 S8        30.09F
DUBOIS         FAIR      54  27  35 SW15      30.07S
LANDER         CLEAR     62  31  31 W12       29.97S
RIVERTON       CLEAR     63  28  26 SE3       29.98F
CASPER         CLEAR     56  31  38 SW6       30.00S
DOUGLAS        CLEAR     61  33  35 W3        30.00R

$$
WYZ021-027>030-104>119-210200-
SOUTHERN WYOMING

CITY           SKY/WX    TMP DP  RH WIND       PRES   REMARKS
EVANSTON       CLOUDY    58  33  39 S12       30.09F
KEMMERER       PTCLDY    59  30  33 S5        30.10F
FORT BRIDGER   CLOUDY    59  33  37 S8        30.12S
ROCK SPRINGS   CLEAR     56  31  38 SW7       30.09S
RAWLINS        CLEAR     56  32  40 SW7       30.11F
SARATOGA       CLOUDY    57  32  38 SW9       30.14S
LARAMIE        MOCLDY    55  35  47 SE7       30.15R
CHEYENNE       CLEAR     58  35  42 SW6       30.09S
TORRINGTON     CLEAR     64  36  35 SE6       29.97S
PINE BLUFFS    FAIR      59  34  38 S8        30.05S

$$



USA.gov is the U.S. government's official web portal to all federal, state and local government web resources and services.